Hourly Weather Rusyatino

Today, 10 April, Saturday

Time Temperature Precipitation Wind Pressure Humidity
00:00 +1°C° 0 mm 2 mps 752 mmHg 68%
01:00 +1°C° 0 mm 2 mps 752 mmHg 68%
02:00 +1°C° 0 mm 2 mps 752 mmHg 69%
03:00 +1°C° 0 mm 2 mps 752 mmHg 69%
04:00 +1°C° 0 mm 2 mps 752 mmHg 70%
05:00 +1°C° 0 mm 2 mps 752 mmHg 71%
06:00 +1°C° 0 mm 2 mps 752 mmHg 72%
07:00 +1°C° 0 mm 3 mps 753 mmHg 66%
08:00 +3°C° 0 mm 3 mps 753 mmHg 60%
09:00 +5°C° 0 mm 3 mps 753 mmHg 54%
10:00 +7°C° 0 mm 3 mps 753 mmHg 49%
11:00 +6°C° 0 mm 4 mps 752 mmHg 44%
12:00 +7°C° 0 mm 4 mps 752 mmHg 39%
13:00 +9°C° 0 mm 3 mps 752 mmHg 38%
14:00 +9°C° 0 mm 3 mps 752 mmHg 38%
15:00 +10°C° 0 mm 3 mps 752 mmHg 37%
16:00 +9°C° 0 mm 3 mps 751 mmHg 41%
17:00 +9°C° 0 mm 2 mps 751 mmHg 44%
18:00 +9°C° 0 mm 2 mps 751 mmHg 48%
19:00 +7°C° 0 mm 2 mps 751 mmHg 52%
20:00 +6°C° 0 mm 2 mps 751 mmHg 56%
21:00 +5°C° 0 mm 2 mps 752 mmHg 60%
22:00 +4°C° 0 mm 2 mps 752 mmHg 62%
23:00 +3°C° 0 mm 3 mps 752 mmHg 64%

Tomorrow, 11 April, Sunday

Time Temperature Precipitation Wind Pressure Humidity
00:00 +2°C° 0 mm 3 mps 752 mmHg 66%
01:00 +3°C° 0 mm 2 mps 752 mmHg 68%
02:00 +2°C° 0 mm 2 mps 752 mmHg 70%
03:00 +2°C° 0 mm 2 mps 753 mmHg 72%
04:00 +2°C° 0 mm 2 mps 753 mmHg 73%
05:00 +2°C° 0 mm 2 mps 753 mmHg 74%
06:00 +2°C° 0 mm 2 mps 753 mmHg 76%
07:00 +3°C° 0 mm 2 mps 754 mmHg 70%
08:00 +5°C° 0 mm 2 mps 754 mmHg 64%
09:00 +7°C° 0 mm 2 mps 755 mmHg 59%
10:00 +8°C° 0 mm 2 mps 755 mmHg 54%
11:00 +10°C° 0 mm 2 mps 755 mmHg 49%
12:00 +12°C° 0 mm 2 mps 755 mmHg 44%
13:00 +13°C° 0 mm 2 mps 755 mmHg 43%
14:00 +14°C° 0 mm 1 mps 755 mmHg 41%
15:00 +14°C° 0 mm 1 mps 755 mmHg 40%
16:00 +14°C° 0 mm 1 mps 755 mmHg 43%
17:00 +14°C° 0 mm 1 mps 755 mmHg 46%
18:00 +13°C° 0 mm 1 mps 755 mmHg 49%
19:00 +12°C° 0 mm 1 mps 755 mmHg 53%
20:00 +10°C° 0 mm 1 mps 756 mmHg 57%
21:00 +8°C° 0 mm 2 mps 756 mmHg 61%
22:00 +7°C° 0 mm 2 mps 756 mmHg 63%
23:00 +7°C° 0 mm 2 mps 756 mmHg 65%

Day after tomorrow, 12 April, Monday

Time Temperature Precipitation Wind Pressure Humidity
00:00 +6°C° 0 mm 2 mps 756 mmHg 67%
01:00 +6°C° 0 mm 2 mps 756 mmHg 69%
02:00 +5°C° 0 mm 2 mps 756 mmHg 72%
03:00 +5°C° 0 mm 2 mps 756 mmHg 74%
04:00 +4°C° 0 mm 2 mps 756 mmHg 76%
05:00 +3°C° 0 mm 3 mps 756 mmHg 78%
06:00 +2°C° 0 mm 3 mps 756 mmHg 79%
07:00 +4°C° 0 mm 3 mps 756 mmHg 71%
08:00 +5°C° 0 mm 4 mps 755 mmHg 62%
09:00 +7°C° 0 mm 5 mps 755 mmHg 53%
10:00 +7°C° 0 mm 4 mps 755 mmHg 58%
11:00 +7°C° 0 mm 4 mps 755 mmHg 62%
12:00 +7°C° 0 mm 4 mps 755 mmHg 67%
13:00 +8°C° 0 mm 4 mps 754 mmHg 68%
14:00 +11°C° 0 mm 4 mps 754 mmHg 69%
15:00 +12°C° 0 mm 5 mps 753 mmHg 69%
16:00 +12°C° 0 mm 4 mps 753 mmHg 72%
17:00 +12°C° 0 mm 4 mps 753 mmHg 75%
18:00 +12°C° 0 mm 3 mps 753 mmHg 78%
19:00 +11°C° 0 mm 3 mps 753 mmHg 82%
20:00 +10°C° 0 mm 3 mps 752 mmHg 86%
21:00 +9°C° 0 mm 3 mps 752 mmHg 90%
22:00 +9°C° 0 mm 3 mps 752 mmHg 90%
23:00 +9°C° 0 mm 3 mps 752 mmHg 90%

13 April, Tuesday

Time Temperature Precipitation Wind Pressure Humidity
00:00 +9°C° 0 mm 3 mps 751 mmHg 90%
01:00 +9°C° 0 mm 3 mps 751 mmHg 89%
02:00 +9°C° 0 mm 3 mps 751 mmHg 87%
03:00 +8°C° 0 mm 3 mps 751 mmHg 86%
04:00 +8°C° 0 mm 3 mps 751 mmHg 84%
05:00 +8°C° 0 mm 3 mps 751 mmHg 83%
06:00 +8°C° 0 mm 3 mps 751 mmHg 82%
07:00 +10°C° 0 mm 3 mps 751 mmHg 78%
08:00 +11°C° 0 mm 3 mps 751 mmHg 73%
09:00 +12°C° 0 mm 4 mps 751 mmHg 69%
10:00 +14°C° 0 mm 4 mps 751 mmHg 62%
11:00 +15°C° 0 mm 4 mps 750 mmHg 55%
12:00 +18°C° 0 mm 4 mps 750 mmHg 49%
13:00 +19°C° 0 mm 5 mps 750 mmHg 46%
14:00 +19°C° 0 mm 5 mps 750 mmHg 43%
15:00 +20°C° 0 mm 5 mps 750 mmHg 39%
16:00 +19°C° 0 mm 4 mps 750 mmHg 43%
17:00 +19°C° 0 mm 4 mps 750 mmHg 46%
18:00 +18°C° 0 mm 3 mps 749 mmHg 50%
19:00 +17°C° 0 mm 3 mps 750 mmHg 54%
20:00 +14°C° 0 mm 3 mps 750 mmHg 59%
21:00 +13°C° 0 mm 3 mps 750 mmHg 63%
22:00 +12°C° 0 mm 3 mps 750 mmHg 65%
23:00 +12°C° 0 mm 3 mps 750 mmHg 68%

14 April, Wednesday

Time Temperature Precipitation Wind Pressure Humidity
00:00 +11°C° 0 mm 3 mps 749 mmHg 70%
01:00 +11°C° 0 mm 3 mps 749 mmHg 71%
02:00 +10°C° 0 mm 3 mps 749 mmHg 72%
03:00 +10°C° 0 mm 3 mps 749 mmHg 72%
04:00 +10°C° 0 mm 3 mps 749 mmHg 73%
05:00 +9°C° 0 mm 3 mps 749 mmHg 74%
06:00 +9°C° 0 mm 3 mps 749 mmHg 75%
07:00 +11°C° 0 mm 3 mps 749 mmHg 70%
08:00 +12°C° 0 mm 4 mps 749 mmHg 66%
09:00 +14°C° 0 mm 4 mps 749 mmHg 61%
10:00 +15°C° 0 mm 5 mps 748 mmHg 53%
11:00 +17°C° 0 mm 6 mps 748 mmHg 46%
12:00 +19°C° 0 mm 6 mps 748 mmHg 38%
13:00 +19°C° 0 mm 6 mps 747 mmHg 38%
14:00 +19°C° 0 mm 6 mps 747 mmHg 37%
15:00 +20°C° 0 mm 6 mps 747 mmHg 36%
16:00 +19°C° 0 mm 6 mps 746 mmHg 38%
17:00 +17°C° 0 mm 5 mps 746 mmHg 40%
18:00 +17°C° 0 mm 5 mps 746 mmHg 41%
19:00 +17°C° 0 mm 4 mps 746 mmHg 46%
20:00 +14°C° 0 mm 4 mps 746 mmHg 50%
21:00 +13°C° 0 mm 3 mps 746 mmHg 54%
22:00 +13°C° 0 mm 3 mps 746 mmHg 57%
23:00 +12°C° 0 mm 3 mps 746 mmHg 60%

15 April, Thursday

Time Temperature Precipitation Wind Pressure Humidity
00:00 +12°C° 0 mm 2 mps 745 mmHg 63%
01:00 +12°C° 0 mm 2 mps 745 mmHg 67%
02:00 +10°C° 0 mm 2 mps 745 mmHg 70%
03:00 +10°C° 0 mm 2 mps 745 mmHg 74%
04:00 +9°C° 0 mm 2 mps 745 mmHg 75%
05:00 +9°C° 0 mm 2 mps 745 mmHg 76%
06:00 +9°C° 0 mm 2 mps 745 mmHg 76%
07:00 +10°C° 0 mm 2 mps 745 mmHg 71%
08:00 +12°C° 0 mm 2 mps 744 mmHg 66%
09:00 +13°C° 0 mm 2 mps 744 mmHg 61%
10:00 +13°C° 0 mm 3 mps 744 mmHg 56%
11:00 +15°C° 0 mm 4 mps 743 mmHg 52%
12:00 +17°C° 0 mm 4 mps 743 mmHg 47%
13:00 +18°C° 0 mm 4 mps 743 mmHg 45%
14:00 +17°C° 0 mm 5 mps 742 mmHg 44%
15:00 +19°C° 0 mm 5 mps 742 mmHg 43%
16:00 +18°C° 0 mm 4 mps 742 mmHg 47%
17:00 +17°C° 0 mm 4 mps 742 mmHg 50%
18:00 +17°C° 0 mm 3 mps 741 mmHg 54%
19:00 +14°C° 0.1 mm 3 mps 741 mmHg 61%
20:00 +13°C° 0.1 mm 3 mps 741 mmHg 68%
21:00 +11°C° 0.1 mm 3 mps 741 mmHg 74%
22:00 +11°C° 0 mm 3 mps 741 mmHg 75%
23:00 +11°C° 0 mm 4 mps 741 mmHg 76%
Show more